Morrisville, VT

1:29 AM EDT on August 29, 2016 (GMT -0400)
Morrisville Stowe State

Weather History for KMVL - February, 2013

Change the Weather History Date:

Thursday, February 28, 2013

  Actual Average Record
Temperature  
Mean Temperature 36 °F 23 °F  
Max Temperature 41 °F 34 °F 51 °F (1998)
Min Temperature 31 °F 11 °F -19 °F (2015)
Degree Days  
Heating Degree Days 29 42  
Month to date heating degree days 1219 1297  
Since 1 July heating degree days 5532 5960  
Cooling Degree Days 0 0  
Month to date cooling degree days 0 0  
Year to date cooling degree days 0 0  
Moisture  
Dew Point 31 °F    
Average Humidity 83    
Maximum Humidity 100    
Minimum Humidity 65    
Precipitation  
Precipitation 0.04 in 0.06 in 0.54 in (1999)
Month to date precipitation 1.16 1.74  
Year to date precipitation 2.71 4.28  
Sea Level Pressure  
Sea Level Pressure 29.61 in    
Wind  
Wind Speed 1 mph (North)    
Max Wind Speed 7 mph    
Max Gust Speed 9 mph    
Visibility 6 miles    
Events Fog , Rain , Snow    
T = Trace of Precipitation, MM = Missing Value Source: NWS Daily Summary

Daily Weather History Graph

Daily Weather History Graph

Search for Another Location

Airport or City:

Trip Planner

Search our weather history database for the weather conditions in past years. The results will help you decide how hot, cold, wet, or windy it might be!

Date:

Astronomy

Feb. 28, 2013 Rise Set
Actual Time 6:29 AM EST 5:37 PM EST
Civil Twilight 5:59 AM EST 6:06 PM EST
Nautical Twilight 5:26 AM EST 6:40 PM EST
Astronomical Twilight 4:52 AM EST 7:14 PM EST
Moon 9:11 PM EST (2/28) 7:28 AM EST (2/28)
Length of Visible Light 12h 06m
Length of Day
11h 08m
Waning Gibbous, 91% of the Moon is Illuminated
Feb 28
Waning Gibbous
Mar 4
Last Quarter
Mar 11
New
Mar 19
First Quarter
Mar 27
Full

Hourly Weather History & Observations

Time (EST) Temp. Windchill Dew Point Humidity Pressure Visibility Wind Dir Wind Speed Gust Speed Precip Events Conditions
12:11 AM 32.0 °F - 28.4 °F 87% 29.64 in 2.5 mi Calm Calm - 0.00 in Snow Light Snow
12:41 AM 32.0 °F - 28.4 °F 87% 29.63 in 1.5 mi Calm Calm - 0.01 in Snow Light Snow
12:54 AM 30.9 °F 27.5 °F 28.9 °F 92% 29.66 in 2.5 mi North 3.5 mph - 0.01 in Snow Light Snow
1:01 AM 30.2 °F 25.4 °F 28.4 °F 93% 29.63 in 2.5 mi NNW 4.6 mph - 0.00 in Snow Light Snow
1:12 AM 30.2 °F - 28.4 °F 93% 29.62 in 2.0 mi Calm Calm - 0.01 in Snow Light Snow
1:22 AM 30.2 °F 26.7 °F 30.2 °F 100% 29.62 in 1.2 mi NNW 3.5 mph - 0.01 in Snow Light Snow
1:41 AM 30.2 °F - 30.2 °F 100% 29.61 in 1.8 mi Calm Calm - 0.02 in Snow Light Snow
1:43 AM 30.2 °F - 30.2 °F 100% 29.61 in 2.0 mi Calm Calm - 0.02 in Snow Light Snow
2:54 AM 30.9 °F - 30.0 °F 96% 29.61 in 9.0 mi Calm Calm - 0.00 in   Overcast
3:54 AM 30.9 °F - 30.0 °F 96% 29.60 in 10.0 mi Calm Calm - N/A   Overcast
4:54 AM 30.9 °F - 28.9 °F 92% 29.61 in 10.0 mi Calm Calm - N/A   Overcast
5:54 AM 30.9 °F - 28.9 °F 92% 29.61 in 8.0 mi Calm Calm - N/A   Overcast
6:04 AM 30.2 °F - 28.4 °F 93% 29.58 in 8.0 mi Calm Calm - N/A   Overcast
6:54 AM 30.9 °F - 28.9 °F 92% 29.62 in 5.0 mi Calm Calm - N/A   Overcast
7:18 AM 30.2 °F - 30.2 °F 100% 29.60 in 5.0 mi Calm Calm - N/A   Overcast
7:44 AM 30.2 °F - 30.2 °F 100% 29.60 in 7.0 mi Calm Calm - N/A   Overcast
7:54 AM 32.0 °F - 30.0 °F 92% 29.62 in 5.0 mi Calm Calm - N/A   Overcast
8:54 AM 33.1 °F - 30.9 °F 92% 29.62 in 10.0 mi Calm Calm - N/A   Overcast
9:03 AM 33.8 °F - 30.2 °F 87% 29.59 in 10.0 mi Calm Calm - N/A   Overcast
9:45 AM 35.6 °F - 30.2 °F 81% 29.59 in 10.0 mi Calm Calm - N/A   Scattered Clouds
9:54 AM 35.1 °F - 30.9 °F 85% 29.62 in 10.0 mi Calm Calm - N/A   Partly Cloudy
10:36 AM 35.6 °F 32.8 °F 30.2 °F 81% 29.59 in 10.0 mi South 3.5 mph - N/A   Scattered Clouds
10:54 AM 37.0 °F - 30.9 °F 79% 29.61 in 10.0 mi Calm Calm - N/A   Partly Cloudy
11:54 AM 39.9 °F - 30.9 °F 70% 29.61 in 10.0 mi Calm Calm - N/A   Partly Cloudy
12:54 PM 39.9 °F 37.8 °F 30.9 °F 70% 29.60 in 10.0 mi North 3.5 mph - N/A   Overcast
1:54 PM 41.0 °F 39.0 °F 32.0 °F 70% 29.59 in 10.0 mi North 3.5 mph - N/A   Overcast
2:54 PM 41.0 °F - 30.9 °F 67% 29.59 in 10.0 mi Calm Calm - N/A   Overcast
3:54 PM 39.9 °F 36.7 °F 30.9 °F 70% 29.59 in 10.0 mi NE 4.6 mph - N/A   Overcast
4:23 PM 39.2 °F 37.0 °F 32.0 °F 75% 29.57 in 10.0 mi North 3.5 mph - N/A   Overcast
4:54 PM 37.9 °F 33.5 °F 33.1 °F 83% 29.60 in 8.0 mi North 5.8 mph - 0.00 in Rain Light Rain
5:54 PM 36.0 °F - 33.1 °F 89% 29.61 in 10.0 mi Calm Calm - 0.00 in Rain Light Rain
6:54 PM 35.1 °F - 33.1 °F 92% 29.62 in 10.0 mi Calm Calm - 0.00 in   Overcast
7:04 PM 35.6 °F - 32.0 °F 87% 29.59 in 9.0 mi Calm Calm - N/A   Overcast
7:54 PM 35.1 °F - 33.1 °F 92% 29.62 in 7.0 mi Calm Calm - N/A   Overcast
8:31 PM 33.8 °F - 32.0 °F 93% 29.59 in 2.5 mi Calm Calm - 0.01 in Rain Light Rain
8:39 PM 33.8 °F - 32.0 °F 93% 29.59 in 5.0 mi Calm Calm - 0.01 in Rain Light Rain
8:54 PM 34.0 °F - 32.0 °F 92% 29.62 in 6.0 mi Calm Calm - 0.01 in   Overcast
9:30 PM 33.8 °F - 32.0 °F 93% 29.59 in 4.0 mi Calm Calm - N/A   Overcast
9:54 PM 34.0 °F - 32.0 °F 92% 29.62 in 4.0 mi Calm Calm - N/A   Overcast
10:35 PM 33.8 °F - 30.2 °F 87% 29.59 in 1.5 mi Calm Calm - N/A   Mostly Cloudy
10:38 PM 32.0 °F - 30.2 °F 93% 29.59 in 0.8 mi Calm Calm - N/A   Mostly Cloudy
11:16 PM 32.0 °F - 30.2 °F 93% 29.58 in 0.5 mi Calm Calm - N/A Fog Fog
11:54 PM 30.9 °F - 30.0 °F 96% 29.61 in 0.8 mi Calm Calm - N/A   Overcast